Indianapolis, IN

7:57 PM EST on November 17, 2019 (GMT -0500)
Indianapolis International

Weather History for KIND - September, 2019

Change the Weather History Date:

Thursday, September 12, 2019

  Actual Average Record
Temperature  
Mean Temperature 81 °F 69 °F  
Max Temperature 91 °F 79 °F 96 °F (1897)
Min Temperature 71 °F 58 °F 40 °F (1955)
Degree Days  
Heating Degree Days 0 1  
Month to date heating degree days 0 8  
Since 1 July heating degree days 0 12  
Cooling Degree Days 16 5  
Month to date cooling degree days 100 75  
Year to date cooling degree days 1139 996  
Growing Degree Days 31 (Base 50)    
Moisture  
Dew Point 70 °F    
Average Humidity 71    
Maximum Humidity 93    
Minimum Humidity 49    
Precipitation  
Precipitation 0.00 in 0.11 in 1.08 in (1906)
Month to date precipitation 0.01 1.23  
Year to date precipitation 36.56 30.56  
Snow  
Snow 0.00 in 0.00 in 0.00 in ()
Month to date snowfall 0.0 0.0  
Since 1 July snowfall 0.0 0.0  
Since 1 September snowfall 0.0 0.0  
Snow Depth 0.00 in    
Sea Level Pressure  
Sea Level Pressure 30.10 in    
Wind  
Wind Speed 7 mph (SW)    
Max Wind Speed 14 mph    
Max Gust Speed 18 mph    
Visibility 10 miles    
Events      
T = Trace of Precipitation, MM = Missing Value Source: NWS Daily Summary

Daily Weather History Graph

Daily Weather History Graph

Search for Another Location

Airport or City:

Astronomy

Sep. 12, 2019 Rise Set
Actual Time 7:23 AM EDT 7:59 PM EDT
Civil Twilight 6:56 AM EDT 8:26 PM EDT
Nautical Twilight 6:23 AM EDT 8:58 PM EDT
Astronomical Twilight 5:50 AM EDT 9:30 PM EDT
Moon 7:42 PM EDT (9/12) 5:42 AM EDT (9/12)
Length of Visible Light 13h 30m
Length of Day
12h 35m
Waxing Gibbous, 98% of the Moon is Illuminated
Sep 12
Waxing Gibbous
Sep 14
Full
Sep 21
Last Quarter
Sep 28
New
Oct 5
First Quarter

Hourly Weather History & Observations

Time (EDT) Temp. Heat Index Dew Point Humidity Pressure Visibility Wind Dir Wind Speed Gust Speed Precip Events Conditions
12:54 AM 75.0 °F - 70.0 °F 84% 30.08 in 10.0 mi SSW 4.6 mph - N/A   Clear
1:54 AM 73.9 °F - 70.0 °F 87% 30.08 in 10.0 mi SSW 4.6 mph - N/A   Clear
2:54 AM 73.0 °F - 70.0 °F 90% 30.07 in 10.0 mi SW 6.9 mph - N/A   Clear
3:54 AM 72.0 °F - 70.0 °F 93% 30.08 in 7.0 mi SW 5.8 mph - N/A   Clear
4:54 AM 72.0 °F - 69.1 °F 91% 30.09 in 9.0 mi SW 6.9 mph - N/A   Clear
5:54 AM 72.0 °F - 69.1 °F 91% 30.11 in 9.0 mi Calm Calm - N/A   Clear
6:54 AM 71.1 °F - 69.1 °F 93% 30.12 in 9.0 mi SSW 5.8 mph - N/A   Partly Cloudy
7:54 AM 72.0 °F - 69.1 °F 91% 30.14 in 7.0 mi SW 5.8 mph - N/A   Partly Cloudy
8:54 AM 73.9 °F - 71.1 °F 91% 30.13 in 8.0 mi SSW 4.6 mph - N/A   Partly Cloudy
9:54 AM 79.0 °F - 71.1 °F 77% 30.14 in 10.0 mi South 4.6 mph - N/A   Scattered Clouds
10:54 AM 82.0 °F 86.3 °F 71.1 °F 69% 30.13 in 10.0 mi WSW 6.9 mph - N/A   Partly Cloudy
11:54 AM 86.0 °F 91.5 °F 71.1 °F 61% 30.13 in 10.0 mi WSW 9.2 mph - N/A   Partly Cloudy
12:54 PM 88.0 °F 92.9 °F 70.0 °F 55% 30.12 in 10.0 mi West 10.4 mph - N/A   Partly Cloudy
1:54 PM 90.0 °F 95.4 °F 70.0 °F 52% 30.11 in 10.0 mi West 5.8 mph - N/A   Scattered Clouds
2:54 PM 91.0 °F 95.6 °F 69.1 °F 48% 30.09 in 10.0 mi WSW 9.2 mph - N/A   Scattered Clouds
3:54 PM 90.0 °F 94.5 °F 69.1 °F 50% 30.08 in 10.0 mi WSW 5.8 mph - N/A   Scattered Clouds
4:54 PM 88.0 °F 92.9 °F 70.0 °F 55% 30.07 in 10.0 mi SSW 9.2 mph - N/A   Scattered Clouds
5:54 PM 88.0 °F 92.9 °F 70.0 °F 55% 30.06 in 10.0 mi SSW 9.2 mph - N/A   Scattered Clouds
6:54 PM 87.1 °F 92.0 °F 70.0 °F 57% 30.07 in 10.0 mi SW 10.4 mph - N/A   Scattered Clouds
7:54 PM 82.9 °F 87.0 °F 70.0 °F 65% 30.06 in 10.0 mi SSW 6.9 mph - N/A   Partly Cloudy
8:39 PM 81.0 °F 84.4 °F 70.0 °F 69% 30.09 in 10.0 mi SSW 5.8 mph - N/A   Partly Cloudy
8:54 PM 82.0 °F 85.9 °F 70.0 °F 67% 30.08 in 10.0 mi South 4.6 mph - N/A   Partly Cloudy
9:54 PM 80.1 °F 83.6 °F 71.1 °F 74% 30.09 in 10.0 mi SSE 5.8 mph - N/A   Partly Cloudy
10:54 PM 80.1 °F 83.6 °F 71.1 °F 74% 30.09 in 10.0 mi South 5.8 mph - N/A   Partly Cloudy
11:54 PM 80.1 °F 83.6 °F 71.1 °F 74% 30.10 in 10.0 mi SSE 8.1 mph - N/A   Partly Cloudy